TALO2: Illinois River, Tahlequah, OK

Data processed at Sat Mar 10 2018 23:36


All information presented herein is the property of the government of the United States of America and may be revised or deleted at any time without prior notice.
Dissemination of this information without the expressed written consent of the Public Affairs Office, Tulsa District U.S. Army Corps of Engineers is strictly prohibited.
These data are gathered electronically and, as presented, have not undergone any form of quality control. These data are not guaranteed to be valid or correct.
Go to home page.
Go to station list.

Upstream stations:

Downstream station:
Previous Day
Next Day
Current Day
    
SHEF ID:       TALO2     Illinois River near Tahlequah, O
STATION TYPE:  

               PRECIP PRECIP(A)     STAGE  STAGE(2)  RIV-FLOW  BAT-LOAD
                   in        in        ft        ft       cfs      volt
              Ccp-Rev   Ccp-Rev   Ccp-Rev   Ccp-Rev   Ccp-Rev   Ccp-Rev
(US/Central)
03/08 00:00      0.00      ----      6.84      6.54      1614     12.57
03/08 01:00      0.00      ----      6.83      6.54      1602     12.49
03/08 02:00      0.00      ----      6.83      6.55      1602     12.41
03/08 03:00      0.00      ----      6.82      6.54      1590     12.41
03/08 04:00      0.00      ----      6.82      6.51      1590     12.41
03/08 05:00      0.00      ----      6.81      6.54      1577     12.41
03/08 06:00      0.00      ----      6.80      6.52      1565     12.41
03/08 07:00      0.00      ----      6.80      6.49      1565     12.41
03/08 08:00      0.00      ----      6.79      6.52      1553     12.49
03/08 09:00      0.00      ----      6.79      6.48      1553     13.21
03/08 10:00      0.00      ----      6.78      6.51      1541     13.60
03/08 11:00      0.00      ----      6.77      6.49      1529     13.68
03/08 12:00      0.00      ----      6.77      6.46      1529     13.68
03/08 13:00      0.00      ----      6.76      6.45      1517     13.68
03/08 14:00      0.00      ----      6.76      6.45      1517     13.68
03/08 15:00      0.00      ----      6.75      6.46      1504     13.05
03/08 16:00      0.00      ----      6.75      6.41      1504     13.29
03/08 17:00      0.00      ----      6.74      6.44      1492     13.05
03/08 18:00      0.00      ----      6.73      6.41      1480     12.89
03/08 19:00      0.00      ----      6.72      6.44      1467     12.57
03/08 20:00      0.00      ----      6.72      6.44      1467     12.49
03/08 21:00      0.00      ----      6.72      6.43      1467     12.49
03/08 22:00      0.00      ----      6.71      6.45      1455     12.49
03/08 23:00      0.00      ----      6.71      6.43      1455     12.41